Other Public Products
Issued by NWS Charleston, SC

Current Version | Previous Version | Graphics & Text | Print | Product List | Glossary On
Versions: 1 2 3 4 5 6 7 8 9 10 11 12 13 14 15 16 17 18 19 20 21 22 23 24 25 26 27 28 29 30 31 32 33 34 35 36 37 38 39 40 41 42 43 44 45 46 47 48 49 50
000 FPUS82 KCHS 230927 OPUCHS TEST...KCHS/KSAV Gateway Observations...TEST National Weather Service Charleston SC 500 AM EDT MON OCT 23 2017 NOTE: "fair" indicates few or no clouds below 12,000 feet with no significant weather and/or obstructions to visibility. SCZ050-WAZ558-NCZ071-TXZ119-213-PAZ071-DCZ001-FLZ074-172-MI076- NYZ176-178-MAZ016-IL014-TNZ027-NJZ106-GAZ044-MD014-231000- ...Gateway Observations for Charleston International... CITY SKY/WX TMP DP RH WIND PRES REMARKS Chas Airport LGT RAIN 72 71 97 S13 30.11F FOG Seattle MOCLDY 50 46 86 SE5 30.52R Charlotte HVY RAIN 66 66 100 E9 30.12F FOG Dallas DFW CLEAR 50 45 83 S6 30.10F Dallas Love CLEAR 55 47 74 CALM 30.12F Philladelphia CLOUDY 61 60 97 CALM 30.30F FOG Wash National CLOUDY 61 61 100 NE7 30.27S FOG Baltimore CLOUDY 61 61 100 NE3 30.26F Miami MOCLDY 81 75 82 SE8 30.03S Detroit CLOUDY 62 53 72 S7 29.96F Newark CLOUDY 63 62 97 CALM 30.32S Laguardia MOCLDY 62 60 93 CALM 30.32S J F K CLOUDY 59 59 100 NE3 30.33S Boston Logan CLOUDY 55 54 96 CALM 30.38S FOG Ft. Lauderdale PTCLDY 81 75 82 SE15 30.02F Chicago O`Hare LGT RAIN 51 49 92 N8 29.94F FOG Chicago Midway RAIN 52 52 100 N9 29.93F FOG Houston Bush CLEAR 56 51 84 N7 30.13S Houston Hobby CLEAR 58 50 75 N6 30.12F Nashville RAIN 63 61 93 NW12 29.84F FOG Atlanta LGT RAIN 68 68 100 SE10G17 29.98F FOG $$ GAZ044-118-TXZ119-213-NCZ071-DCZ001-MDZ014-506-PAZ021-071-NJZ106- NYZ176-178-MAZ106-OHZ011-021-055-MIZ076-KYZ091-ILZ014-INZ047- MNZ060-ONZ431-231000- ...Gateway Observations for Savannah International... CITY SKY/WX TMP DP RH WIND PRES REMARKS Savannah Arpt MOCLDY 73 71 93 SE8 30.06F Atlanta LGT RAIN 68 68 100 SE10G17 29.98F FOG Charlotte HVY RAIN 66 66 100 E9 30.12F FOG Dallas DFW CLEAR 50 45 83 S6 30.10F Houston Bush CLEAR 56 51 84 N7 30.13S Wash National CLOUDY 61 61 100 NE7 30.27S FOG Wash Dulles CLOUDY 55 55 100 CALM 30.26S Baltimore CLOUDY 61 61 100 NE3 30.26F Philadelphia CLOUDY 61 60 97 CALM 30.30F FOG Newark CLOUDY 63 62 97 CALM 30.32S Laguardia MOCLDY 62 60 93 CALM 30.32S J F K CLOUDY 59 59 100 NE3 30.33S Boston CLOUDY 55 54 96 CALM 30.38S FOG Pittsburg MOCLDY 60 51 72 SE7 30.11F Akron MOCLDY 61 49 64 SE12 30.05F Cleveland CLOUDY 65 50 58 S12 30.03F Cincinnati CLOUDY 65 54 67 SE12 29.92F Columbus CLOUDY 62 52 67 SE7 29.98F Detroit CLOUDY 62 53 72 S7 29.96F Chicago O`Hare LGT RAIN 51 49 92 N8 29.94F FOG Minneapolis MOCLDY 54 35 48 S8 29.81F Indianapolis CLOUDY 64 58 80 SE7 29.86F Toronto Canada PTCLDY 59 55 88 SE5 30.04F $$

USA.gov is the U.S. government's official web portal to all federal, state and local government web resources and services.